DW6119 Weather Reports


time (UTC)temp
F
wind
direction
speed
knots
gust
knots
rain 1hr
in
rain 24hr
in
rain mn
in
humidity
%
barometer
mb
20260502214439 58 321 0.0 0.0 0.00 0.00 0.00 56 1022.7
20260502213438 58 42 0.0 0.9 0.00 0.00 0.00 55 1022.7
20260502212938 58 166 0.0 0.9 0.00 0.00 0.00 55 1022.7
20260502212438 58 231 0.0 0.0 0.00 0.00 0.00 54 1022.7
20260502211938 58 79 0.0 0.9 0.00 0.00 0.00 55 1022.4
20260502211439 59 239 0.0 0.9 0.00 0.00 0.00 54 1022.4
20260502210938 59 223 0.0 0.9 0.00 0.00 0.00 53 1022.7
20260502210438 59 62 0.0 0.9 0.00 0.00 0.00 54 1022.7
20260502205937 58 150 0.0 0.9 0.00 0.00 0.00 53 1022.7
20260502205438 59 281 0.0 0.9 0.00 0.00 0.00 55 1022.7
20260502204938 59 67 0.0 0.9 0.00 0.00 0.00 54 1022.7
20260502204438 59 59 0.0 0.9 0.00 0.00 0.00 54 1022.7
20260502203939 60 258 0.0 0.9 0.00 0.00 0.00 53 1022.7
20260502203438 60 71 0.0 0.9 0.00 0.00 0.00 52 1022.7
20260502202440 60 57 0.0 0.9 0.00 0.00 0.00 52 1022.7
20260502201939 60 56 0.9 0.9 0.00 0.00 0.00 52 1022.7
20260502201438 61 221 0.0 0.9 0.00 0.00 0.00 51 1022.5
20260502200938 61 121 0.0 0.9 0.00 0.00 0.00 50 1022.6
20260502195915 61 102 0.0 0.9 0.00 0.00 0.00 50 1022.4
20260502194918 61 248 0.0 0.9 0.00 0.00 0.00 50 1022.4
20260502194415 62 250 0.9 0.9 0.00 0.00 0.00 50 1022.4
20260502193915 62 149 0.0 0.9 0.00 0.00 0.00 49 1022.0
20260502193415 62 64 0.9 0.9 0.00 0.00 0.00 50 1022.4
20260502192917 62 253 0.0 0.9 0.00 0.00 0.00 50 1022.4
20260502192417 62 214 0.0 0.9 0.00 0.00 0.00 49 1022.0
20260502191916 62 324 0.0 0.9 0.00 0.00 0.00 49 1022.2
20260502191415 63 83 0.0 1.7 0.00 0.00 0.00 48 1022.0
20260502190915 63 238 0.0 1.7 0.00 0.00 0.00 48 1022.0
20260502190416 62 109 0.9 1.7 0.00 0.00 0.00 48 1022.0
20260502185917 63 226 0.0 0.9 0.00 0.00 0.00 49 1022.1
20260502185416 63 238 0.0 0.9 0.00 0.00 0.00 48 1022.0
20260502184916 64 15 0.0 0.9 0.00 0.00 0.00 48 1021.9
20260502183915 64 106 0.0 0.9 0.00 0.00 0.00 46 1021.8
20260502182416 65 172 0.0 0.9 0.00 0.00 0.00 46 1021.7
20260502181415 65 148 0.0 0.9 0.00 0.00 0.00 47 1021.6
20260502180916 65 246 0.0 0.9 0.00 0.00 0.00 47 1021.7
20260502180416 65 183 0.0 0.9 0.00 0.00 0.00 47 1021.3
20260502170416 69 74 0.9 1.7 0.00 0.00 0.00 40 1021.3
20260502163915 71 204 0.0 1.7 0.00 0.00 0.00 39 1021.1
20260502162915 71 69 0.9 1.7 0.00 0.00 0.00 37 1021.3
20260502162415 71 258 0.0 1.7 0.00 0.00 0.00 37 1021.3
20260502161915 71 154 0.0 2.6 0.00 0.00 0.00 37 1021.3
20260502161420 71 92 0.0 2.6 0.00 0.00 0.00 37 1021.3
20260502160915 72 248 0.9 7.0 0.00 0.00 0.00 35 1021.3
20260502160416 72 234 1.7 7.0 0.00 0.00 0.00 35 1021.3
20260502151915 75 252 2.6 7.0 0.00 0.00 0.00 31 1021.7
20260502151415 76 251 4.3 6.1 0.00 0.00 0.00 31 1021.6
20260502150915 77 254 1.7 7.8 0.00 0.00 0.00 30 1021.3
20260502150416 77 249 2.6 7.8 0.00 0.00 0.00 30 1021.7
20260502130416 75 245 2.6 7.8 0.00 0.00 0.00 30 1023.0
20260502123416 75 282 4.3 7.8 0.00 0.00 0.00 29 1023.4
20260502122916 74 231 3.5 7.8 0.00 0.00 0.00 30 1023.7
20260502122418 74 247 4.3 7.8 0.00 0.00 0.00 29 1023.7
20260502121915 74 232 4.3 7.8 0.00 0.00 0.00 29 1023.5
20260502121416 75 229 2.6 7.8 0.00 0.00 0.00 29 1023.7
20260502120916 74 242 2.6 7.8 0.00 0.00 0.00 29 1023.7
20260502120416 75 269 1.7 7.8 0.00 0.00 0.00 29 1024.0
20260502115415 74 257 2.6 7.8 0.00 0.00 0.00 29 1024.0
20260502114917 74 234 4.3 7.8 0.00 0.00 0.00 29 1024.0
20260502113915 74 259 2.6 7.0 0.00 0.00 0.00 29 1024.3
20260502112915 73 254 2.6 10.4 0.00 0.00 0.00 30 1024.2
20260502112415 74 271 4.3 7.8 0.00 0.00 0.00 30 1024.4
20260502111915 74 218 2.6 7.0 0.00 0.00 0.00 29 1024.4
20260502110916 73 261 2.6 6.1 0.00 0.00 0.00 30 1024.6
20260502110416 74 256 2.6 7.0 0.00 0.00 0.00 31 1024.4
20260502105916 73 255 2.6 7.0 0.00 0.00 0.00 31 1024.5
20260502105416 73 233 3.5 7.0 0.00 0.00 0.00 31 1024.9
20260502104915 73 239 3.5 6.1 0.00 0.00 0.00 31 1024.9
20260502104416 73 235 2.6 7.0 0.00 0.00 0.00 31 1025.1
20260502103915 73 227 1.7 7.0 0.00 0.00 0.00 31 1025.1
20260502103415 72 242 1.7 7.0 0.00 0.00 0.00 31 1025.1
20260502101916 71 252 2.6 6.1 0.00 0.00 0.00 32 1025.6
20260502100916 71 262 1.7 4.3 0.00 0.00 0.00 32 1025.7
20260502100416 71 235 0.9 2.6 0.00 0.00 0.00 35 1025.8
20260502091417 65 53 0.9 1.7 0.00 0.00 0.00 45 1027.0
20260502090915 65 279 0.0 1.7 0.00 0.00 0.00 45 1026.8
20260502090417 65 31 0.0 1.7 0.00 0.00 0.00 45 1027.1
20260502071415 57 57 0.9 2.6 0.00 0.00 0.00 57 1028.8
20260502070916 57 18 0.9 2.6 0.00 0.00 0.00 57 1028.8
20260502070415 57 55 0.0 2.6 0.00 0.00 0.00 58 1028.9
20260502065916 56 42 0.9 2.6 0.00 0.00 0.00 59 1028.8
20260502065415 56 79 1.7 2.6 0.00 0.00 0.00 59 1029.1
20260502064915 55 38 0.9 2.6 0.00 0.00 0.00 60 1028.8
20260502064416 55 29 1.7 2.6 0.00 0.00 0.00 61 1029.1
20260502063915 55 350 0.0 2.6 0.00 0.00 0.00 61 1029.1
20260502063415 55 73 0.9 1.7 0.00 0.00 0.00 61 1029.1
20260502062915 54 42 0.9 1.7 0.00 0.00 0.00 61 1029.0
20260502061915 54 50 0.0 1.7 0.00 0.00 0.00 63 1029.1
20260502061416 53 47 0.0 1.7 0.00 0.00 0.00 64 1029.1
20260502060916 53 40 0.0 0.9 0.00 0.00 0.00 65 1029.1
20260502060415 53 226 0.9 2.6 0.00 0.00 0.00 65 1029.1
20260502055916 52 50 0.0 2.6 0.00 0.00 0.00 66 1029.1
20260502055416 52 48 0.9 6.1 0.00 0.00 0.00 67 1029.2
20260502054917 51 62 0.9 7.0 0.00 0.00 0.00 67 1029.5
20260502054416 51 58 0.9 7.0 0.00 0.00 0.00 67 1029.5
20260502053917 51 56 4.3 7.0 0.00 0.00 0.00 67 1029.5
20260502053416 51 66 0.9 6.1 0.00 0.00 0.00 68 1029.2
20260502052918 51 72 1.7 6.1 0.00 0.00 0.00 67 1029.5
20260502052419 51 53 0.9 1.7 0.00 0.00 0.00 66 1029.5
20260502051916 51 66 0.0 0.9 0.00 0.00 0.00 69 1029.3
20260502051416 50 52 0.0 0.9 0.00 0.00 0.00 69 1029.1
20260502050917 50 66 0.0 0.9 0.00 0.00 0.00 69 1029.5
20260502050416 50 358 0.9 0.9 0.00 0.00 0.00 69 1029.5
20260502045915 50 34 0.0 1.7 0.00 0.00 0.00 69 1029.7
20260502045415 49 8 0.0 1.7 0.00 0.00 0.00 71 1029.7
20260502044916 49 253 0.9 1.7 0.00 0.00 0.00 70 1029.8
20260502044416 49 249 0.9 1.7 0.00 0.00 0.00 71 1029.5
20260502042916 49 248 0.9 0.9 0.00 0.00 0.00 71 1029.1
20260502042415 49 259 0.9 1.7 0.00 0.00 0.00 70 1029.1
20260502041917 49 78 0.0 1.7 0.00 0.00 0.00 71 1029.1
20260502041416 49 244 0.9 1.7 0.00 0.00 0.00 70 1029.2
20260502040916 48 222 0.0 0.9 0.00 0.00 0.00 71 1029.2
20260502035916 49 144 0.0 0.9 0.00 0.00 0.00 71 1029.1
20260502035416 49 100 0.0 0.9 0.00 0.00 0.00 70 1029.1
20260502034916 49 61 0.9 0.9 0.00 0.00 0.00 71 1029.1
20260502034416 49 238 0.0 0.9 0.00 0.00 0.00 70 1029.1
20260502033916 49 179 0.0 1.7 0.00 0.00 0.00 69 1029.1
20260502033416 49 25 0.0 1.7 0.00 0.00 0.00 69 1029.1
20260502032916 49 58 0.0 1.7 0.00 0.00 0.00 69 1029.1
20260502032415 49 247 0.0 0.9 0.00 0.00 0.00 69 1029.1
20260502031918 49 53 0.0 0.9 0.00 0.00 0.00 70 1029.1
20260502030915 49 248 0.0 0.9 0.00 0.00 0.00 69 1029.1
20260502030416 49 255 0.0 0.9 0.00 0.00 0.00 69 1029.1
20260502025416 50 83 0.0 0.9 0.00 0.00 0.00 68 1029.1
20260502024916 49 251 0.0 0.9 0.00 0.00 0.00 68 1029.1
20260502024416 50 251 0.0 0.9 0.00 0.00 0.00 68 1029.1
20260502023917 50 220 0.0 0.0 0.00 0.00 0.00 67 1029.1
20260502023416 50 188 0.0 0.0 0.00 0.00 0.00 68 1029.1
20260502022916 50 243 0.0 0.0 0.00 0.00 0.00 68 1029.1
20260502022416 50 169 0.0 0.9 0.00 0.00 0.00 67 1029.1
20260502021916 50 116 0.0 0.9 0.00 0.00 0.00 67 1029.1
20260502021416 51 186 0.0 0.9 0.00 0.00 0.00 66 1029.1
20260502020916 51 152 0.0 1.7 0.00 0.00 0.00 65 1028.9
20260502020415 51 251 0.9 1.7 0.00 0.00 0.00 65 1029.1
20260502015918 50 246 0.9 1.7 0.00 0.00 0.00 65 1029.1
20260502014916 50 185 0.9 0.9 0.00 0.00 0.00 67 1029.1
20260502014416 50 256 0.0 0.9 0.00 0.00 0.00 67 1029.1
20260502013417 51 66 0.0 0.9 0.00 0.00 0.00 65 1029.0
20260502012916 51 66 0.0 0.9 0.00 0.00 0.00 65 1028.8
20260502012415 51 254 0.0 0.9 0.00 0.00 0.00 64 1029.1
20260502011916 51 250 0.0 0.9 0.00 0.00 0.00 65 1028.8
20260502011416 51 253 0.9 0.9 0.00 0.00 0.00 64 1028.8
20260502010917 51 256 0.0 0.9 0.00 0.00 0.00 65 1029.0
20260502010416 51 242 0.0 0.9 0.00 0.00 0.00 64 1029.0
20260502005916 51 51 0.0 0.9 0.00 0.00 0.00 63 1028.8
20260502005417 51 243 0.0 0.9 0.00 0.00 0.00 63 1028.9
20260502004915 51 240 0.0 0.9 0.00 0.00 0.00 63 1028.8
20260502004416 51 172 0.0 0.0 0.00 0.00 0.00 64 1029.1
20260502003915 51 79 0.0 0.0 0.00 0.00 0.00 64 1029.1
20260502003417 52 89 0.0 0.0 0.00 0.00 0.00 63 1029.1
20260502002918 52 93 0.0 0.0 0.00 0.00 0.00 62 1029.0
20260502002416 52 114 0.0 0.0 0.00 0.00 0.00 62 1028.9
20260502001915 51 107 0.0 0.9 0.00 0.00 0.00 62 1029.1
20260502000916 51 67 0.9 0.9 0.00 0.00 0.00 63 1029.1
20260502000417 51 253 0.0 0.9 0.00 0.00 0.00 62 1029.1
20260501235916 52 65 0.0 0.0 0.00 0.00 0.00 62 1029.1
20260501235416 52 72 0.0 0.0 0.00 0.00 0.00 61 1029.1
20260501234415 52 171 0.0 0.0 0.00 0.00 0.00 61 1029.0
20260501233916 52 167 0.0 0.0 0.00 0.00 0.00 61 1029.1
20260501233417 52 66 0.0 0.0 0.00 0.00 0.00 61 1028.9
20260501232915 52 67 0.0 0.0 0.00 0.00 0.00 61 1029.1
20260501232416 52 80 0.0 0.0 0.00 0.00 0.00 61 1029.1
20260501231916 52 78 0.0 0.0 0.00 0.00 0.00 60 1029.1
20260501231416 52 78 0.0 0.0 0.00 0.00 0.00 60 1028.8
20260501230917 53 168 0.0 0.0 0.00 0.00 0.00 60 1028.8
20260501230416 53 186 0.0 0.0 0.00 0.00 0.00 59 1028.9
20260501225916 53 205 0.0 0.0 0.00 0.00 0.00 59 1028.8
20260501224916 53 51 0.0 0.0 0.00 0.00 0.00 59 1028.8
20260501224418 53 57 0.0 0.0 0.00 0.00 0.00 59 1028.8
20260501223917 53 57 0.0 0.0 0.00 0.00 0.00 58 1028.8
20260501222916 53 59 0.0 0.9 0.00 0.00 0.00 56 1028.8
20260501222417 54 346 0.0 0.0 0.00 0.00 0.00 57 1028.8
20260501221916 54 345 0.0 0.0 0.00 0.00 0.00 57 1028.6
20260501221416 54 26 0.0 0.0 0.00 0.00 0.00 56 1028.4
20260501220918 54 42 0.0 0.0 0.00 0.00 0.00 56 1028.5
20260501220416 54 50 0.0 0.0 0.00 0.00 0.00 57 1028.4
20260501215916 54 41 0.0 0.9 0.00 0.00 0.00 56 1028.4
20260501215416 54 55 0.0 0.9 0.00 0.00 0.00 56 1028.4
20260501214916 54 95 0.0 0.0 0.00 0.00 0.00 56 1028.1